Location: Unspecified
(43.4680°N, 87.1740°E)
Time: 07:54:09
(UTC+00:00)

NOSS 0 Rocket - Pass Details

Date: 29 July 2021
Orbit: 936 x 954 km, 70.0° (Epoch: 18 September)

Event Time Altitude Azimuth Distance (km) Brightness Sun altitude
Rises 19:42:15 0° 316° (NW) 3,632 7.3 -25.0°
Reaches altitude 10° 19:46:01 10° 294° (WNW) 2,678 6.3 -24.8°
Enters shadow 19:48:05 14° 275° (W) 2,397 5.9 -24.6°
